Accueil
METAR-TAF:

METAR-TAF

Aéroports :

Anaktuvuk Pass, Alaska, États-Unis

latitude: 68-08-01N, longitude: 151-44-36W, altitude: 641 m

Observation

Le bulletin a été fait il y a 38 minutes, à 12:56 UTC
Vent 15 kt de sud
Température -28°C
Humidité 75%
Pression 1009 hPa
Visibilité: 16.1 km
Quelques nuages à une hauteur de 11000 ft

METAR: PAKP 291256Z AUTO 19015KT 10SM FEW110 M28/M31 A2980 RMK AO2 SLP191 T12781311 FZRANO

Heure: 04:34 (13:34 UTC)


TAF: absent

Observations et prévisions météorologiques de plus de 4000 aéroports (messages METAR et TAF).

Les stations disponibles sont représentées par des disques jaunes et rouges sur la carte.

Passer la souris dessus pour voir le nom de la station.

Cliquer dessus pour voir les observations et prévisions météorologiques.

Pour changer de carte: cliquez sur les boutons verts avec une croix noire pour zoomer, sur le bouton vert avec un tiret pour effectuer un zoom arrière, ou sur les flèches vertes pour les cartes adjacentes.


METAR-TAF: